Home > Weather > Buffalo > Past weeks

Flag for USA Past Weather in Buffalo, New York, USA — Yesterday and Last 2 Weeks

Now
74 °F

Partly sunny.


Feels Like: 76 °F
Forecast: 71 / 82 °F
Wind: 10 mph from Northeast

Location: Greater Buffalo International Airport

Current Time: Jul 29, 2016 at 10:04:11 AM

Latest Report: Jul 29, 2016 at 8:54 AM


Visibility: 10 mi

Pressure: 29.94 "Hg

Humidity: 71%

Dew Point: 64 °F

Location of BuffaloLocation

Past Weather in Buffalo — Graph

°F

Buffalo Temperature Yesterday

Maximum temperature yesterday: 84 °F (at 1:54 PM)
Minimum temperature yesterday: 68 °F (at 6:54 AM)
Average temperature yesterday: 77 °F

High & Low Weather Summary for the Past Weeks

 TemperatureHumidityPressure
High89 °F (Jul 23, 12:54 PM)94% (Jul 25, 8:04 AM)30.27 "Hg (Jul 25, 8:04 AM)
Low55 °F (Jul 20, 5:54 AM)16% (Jul 17, 1:54 PM)29.78 "Hg (Jul 14, 4:54 PM)
Average75 °F63%29.98 "Hg
* Reported Jul 14 8:54 AM — Jul 29 8:54 AM, Buffalo, Weather by CustomWeather, © 2016

Note: Actual official high and low records may vary slightly from our data, if they occured in-between our weather recording intervals... More about our weather records

Advertising

Buffalo Weather History for the Previous 24 Hours

Scroll right to see more
 ConditionsComfort  
Time TempWeatherWind HumidityBarometerVisibility
8:54 AM
Fri, Jul 29
74 °FPartly sunny.10 mph71%29.94 "Hg10 mi
7:54 AM71 °FBroken clouds.5 mph76%29.92 "Hg10 mi
6:54 AM69 °FPartly cloudy.5 mph84%29.91 "Hg10 mi
5:54 AM70 °FPassing clouds.3 mph81%29.90 "Hg10 mi
4:54 AM70 °FPassing clouds.5 mph79%29.90 "Hg10 mi
3:54 AM69 °FPassing clouds.3 mph81%29.90 "Hg10 mi
2:54 AM70 °FPassing clouds.3 mph79%29.89 "Hg10 mi
1:54 AM71 °FPassing clouds.No wind73%29.89 "Hg10 mi
12:54 AM73 °FPartly cloudy.No wind69%29.88 "Hg10 mi
11:54 PM
Thu, Jul 28
74 °FMostly cloudy.No wind64%29.89 "Hg10 mi
10:54 PM75 °FOvercast.No wind64%29.89 "Hg10 mi
9:54 PM76 °FMostly cloudy.3 mph60%29.90 "Hg10 mi
8:54 PM77 °FMostly cloudy.5 mph60%29.88 "Hg10 mi
7:54 PM79 °FMostly cloudy.8 mph56%29.88 "Hg10 mi
6:54 PM80 °FMostly cloudy.8 mph56%29.86 "Hg10 mi
5:54 PM82 °FMostly cloudy.9 mph53%29.86 "Hg10 mi
4:54 PM83 °FMore clouds than sun.5 mph53%29.86 "Hg10 mi
3:54 PM83 °FMore clouds than sun.5 mph55%29.88 "Hg10 mi
2:54 PM83 °FOvercast.No wind55%29.87 "Hg10 mi
1:54 PM84 °FOvercast.No wind51%29.88 "Hg10 mi
12:54 PM82 °FOvercast.5 mph56%29.90 "Hg10 mi
11:54 AM82 °FPartly sunny.No wind56%29.90 "Hg10 mi
10:54 AM80 °FPartly sunny.No wind60%29.91 "Hg10 mi
Weather by CustomWeather, © 2016

See weather overviewHow to use our weather pages